GFSSE_250_rhum_171.txt.gz
RH
71 60 61 60 57 48 45 46 55 56 62 66 66 48 38 30 30 28 30 33 31 29 28 28 33 32 29 28 25 21 17 15 15 14 14 14 14 14 14 15 16 22 20
84 83 85 76 69 63 63 53 42 48 45 43 46 46 48 44 35 32 27 29 26 21 21 19 19 19 18 18 16 15 15 16 17 16 16 16 17 17 17 20 22 29 27
76 92 96 98 90 86 79 65 64 51 49 46 36 29 25 23 22 22 22 20 20 22 23 22 22 19 17 17 17 18 18 18 20 21 20 20 20 21 20 22 28 38 38
74 68 70 69 58 57 52 54 36 28 21 19 20 23 25 26 29 28 28 27 28 26 26 27 28 27 25 26 25 25 22 23 23 23 23 22 22 24 25 31 38 50 45
42 39 36 36 34 32 30 27 25 24 26 33 35 36 34 35 35 36 36 35 32 30 29 27 28 29 28 29 30 26 26 26 26 26 25 26 24 24 26 29 39 46 39
32 38 37 36 33 36 42 36 34 31 38 45 48 52 57 59 52 50 48 45 45 43 38 33 28 26 28 32 27 26 28 28 30 30 28 26 25 25 26 26 30 38 35
35 36 38 40 43 48 49 50 40 36 44 52 59 67 72 76 76 75 74 60 47 42 38 38 40 38 38 42 36 36 33 32 32 37 36 36 32 32 29 27 29 32 32
30 33 38 41 45 44 49 48 51 49 54 66 70 76 81 73 67 64 58 54 57 53 39 37 36 38 43 48 47 42 38 39 39 42 41 45 46 45 43 37 30 30 34
22 23 26 37 41 55 69 64 50 52 59 64 70 67 60 61 56 62 67 67 72 61 55 46 40 37 40 47 43 43 40 38 39 41 37 41 48 58 48 48 49 41 29
28 28 28 26 25 31 39 63 64 60 60 55 56 60 63 67 67 72 77 68 60 69 60 53 61 65 52 40 53 48 49 45 44 38 41 45 51 61 59 56 55 56 57
28 29 32 32 27 26 26 36 50 64 72 74 88 80 75 78 67 52 59 84 93 70 68 53 51 54 51 37 39 65 62 53 50 44 47 52 67 61 52 50 63 49 44
26 25 28 30 32 31 30 29 32 40 45 51 57 58 54 58 63 52 51 41 56 75 79 82 99 82 49 41 43 51 58 57 52 47 51 61 64 60 73 74 45 55 52
27 32 33 39 45 48 57 58 55 54 55 56 61 59 57 58 59 57 57 59 44 42 57 55 60 60 77 100 100 100 100 100 74 70 71 80 65 67 68 70 75 54 42
28 32 31 31 34 40 40 39 46 57 62 62 64 65 62 64 65 61 59 59 65 61 50 46 46 51 57 67 71 100 100 96 100 100 100 100 95 58 67 50 76 72 59
36 36 35 32 32 33 34 35 38 38 38 38 41 45 46 50 54 55 55 56 58 58 60 58 55 54 50 48 60 55 60 94 100 99 100 100 95 72 53 55 53 66 71
43 47 44 41 41 38 39 38 40 42 43 42 40 39 38 37 37 36 38 41 44 46 49 52 50 49 52 51 50 52 53 54 73 99 100 100 100 94 69 55 51 66 75
42 48 50 43 43 43 42 43 48 47 44 43 41 39 37 37 35 34 35 35 34 32 33 36 43 48 48 45 44 45 51 55 66 58 70 89 96 100 100 90 58 78 85
41 49 42 40 42 43 45 44 44 47 47 47 47 44 42 39 36 34 35 34 34 35 34 36 33 33 37 43 46 45 48 57 55 64 76 69 81 96 100 100 99 65 92
72 67 52 56 55 52 51 50 51 52 48 46 47 45 44 41 40 36 36 36 36 36 33 34 34 33 33 32 34 36 36 39 48 57 60 66 62 68 99 96 100 90 84
66 55 58 60 66 71 72 63 63 63 58 54 49 46 46 44 44 44 40 37 35 32 31 30 31 30 30 29 28 28 32 34 36 35 37 39 50 50 64 94 99 100 80
79 66 63 60 64 63 61 59 54 56 55 54 54 53 54 58 54 46 45 41 36 31 30 30 27 28 28 26 28 28 26 26 28 34 30 31 34 39 54 52 75 100 100
77 81 72 70 74 64 56 53 59 56 52 49 48 56 56 51 48 44 39 35 33 31 29 28 29 28 28 27 22 24 28 28 23 26 30 32 34 29 32 41 57 85 100
87 75 67 69 62 50 45 57 58 55 51 51 50 50 48 47 43 38 34 31 29 27 26 26 26 26 25 23 20 17 19 23 27 26 24 27 33 33 28 24 44 74 96
86 77 79 65 50 46 53 69 69 65 64 62 54 48 43 40 38 36 33 30 29 29 30 27 24 22 19 20 22 20 14 15 21 24 30 25 25 30 28 21 23 43 82
89 91 84 73 68 68 82 84 72 74 70 61 48 43 43 41 36 31 29 26 26 27 28 28 27 25 23 22 21 24 23 17 17 19 27 32 24 25 25 24 22 25 59
91 87 75 73 86 91 89 86 77 74 67 50 42 51 55 43 38 34 30 26 25 26 26 24 23 20 18 16 16 18 18 19 16 12 14 27 30 24 23 24 24 25 37

GFSSE_250_rhum_174.txt.gz
RH
95 100 99 99 82 85 78 74 54 49 48 45 45 49 44 43 49 51 46 41 39 35 37 33 30 32 28 29 26 24 23 23 21 19 17 16 15 14 13 12 14 13 12
87 100 100 91 86 74 83 90 84 82 79 78 74 68 53 54 43 41 35 28 27 26 24 24 21 18 20 19 18 18 18 17 16 16 16 16 15 14 15 14 16 17 18
100 100 94 84 74 79 76 69 63 57 54 62 56 45 34 31 23 20 20 20 19 20 22 22 23 22 21 20 22 23 23 21 24 23 21 20 19 18 18 18 18 20 21
93 84 38 42 50 44 39 39 34 34 33 30 26 25 22 23 29 27 26 27 28 29 29 29 26 23 25 25 26 27 25 28 25 24 24 25 23 22 21 20 21 22 27
30 32 32 33 36 39 37 41 35 35 32 29 26 25 30 31 36 40 45 45 45 49 42 35 39 41 36 29 24 27 30 26 26 27 28 27 26 25 24 23 22 23 23
28 34 32 33 36 36 40 39 47 46 48 42 35 34 42 47 46 47 50 42 40 40 40 37 37 38 36 36 37 37 37 29 28 27 27 29 30 32 28 27 29 26 24
32 36 38 35 35 36 34 38 44 46 50 50 49 53 49 58 67 70 69 56 52 48 49 43 38 33 37 37 41 46 51 48 39 33 34 36 38 41 41 44 41 33 25
22 22 22 23 23 23 24 28 33 41 54 58 54 54 60 66 79 79 72 70 75 77 90 84 59 54 45 35 40 44 57 53 47 44 40 40 39 36 45 50 60 46 38
26 26 27 25 26 30 30 30 27 29 31 41 61 58 61 58 57 67 82 86 100 100 100 85 84 53 50 44 39 45 52 50 49 46 42 42 48 40 41 38 49 56 44
29 24 22 21 21 22 31 34 33 31 33 41 50 67 73 74 72 71 70 67 81 90 88 97 100 74 47 45 53 59 68 56 63 39 48 50 45 54 42 47 45 50 47
14 17 18 19 20 20 21 21 23 32 33 31 36 43 51 55 56 61 65 58 55 61 55 44 81 88 76 53 47 48 56 52 67 68 48 52 46 51 48 51 48 47 62
16 17 18 18 20 23 24 26 27 29 31 33 36 39 42 47 47 47 49 52 50 52 61 58 46 60 65 100 100 83 68 57 36 82 87 60 53 48 53 68 67 54 57
19 20 21 24 28 29 28 29 32 32 32 33 36 39 39 41 49 57 59 58 50 45 44 48 51 48 47 51 60 69 79 100 62 100 100 100 79 66 59 66 85 62 57
23 24 25 26 26 31 35 37 39 38 38 36 34 33 35 37 37 38 40 40 44 50 50 49 52 50 42 41 44 42 45 50 83 83 99 76 88 95 100 95 86 85 59
23 25 27 24 26 26 28 31 34 36 40 40 40 41 41 40 38 36 34 34 34 34 34 36 39 42 50 51 39 33 34 44 48 61 82 73 95 100 91 99 90 82 69
23 25 25 24 25 26 30 32 31 33 34 35 37 39 39 40 40 37 33 33 34 34 34 33 33 33 34 40 43 44 40 36 38 44 48 52 75 95 100 100 100 100 74
32 40 39 37 36 39 42 41 38 32 33 33 33 33 30 28 28 28 29 30 31 31 32 33 33 33 33 33 33 34 35 40 39 35 41 48 46 47 84 100 98 90 100
41 50 58 64 61 59 62 54 52 44 37 35 34 33 30 30 32 34 34 34 33 31 28 28 28 29 28 29 30 30 30 30 32 36 36 32 40 44 41 70 84 100 97
62 88 100 74 62 70 60 56 53 49 43 37 37 34 31 37 41 40 40 41 40 36 34 33 33 28 26 26 28 28 29 29 29 29 29 32 32 32 43 57 60 83 69
97 92 77 82 79 71 57 61 59 58 54 45 37 32 33 41 46 52 49 45 38 35 33 32 30 28 26 24 24 25 26 25 26 27 29 31 29 32 33 38 57 56 75
100 100 78 84 84 79 76 85 78 67 62 47 42 42 52 60 69 60 47 41 36 34 33 32 29 27 24 20 20 20 21 21 20 21 24 27 28 27 30 33 39 46 42
100 96 88 87 90 95 94 89 78 77 62 60 54 60 84 84 86 59 47 37 39 37 32 27 26 24 23 20 17 16 17 18 18 18 20 20 24 28 28 27 26 29 33
100 100 99 97 100 97 91 93 85 88 79 62 69 84 100 100 94 56 51 42 40 35 32 29 24 20 20 20 16 13 14 15 20 20 18 20 20 21 26 28 27 25 22
100 100 100 93 100 100 91 72 57 52 51 63 95 100 100 73 62 58 47 36 37 35 31 30 29 24 22 19 20 15 12 13 17 21 24 19 17 18 21 25 27 27 24
100 100 100 100 100 100 81 64 56 54 71 98 100 98 71 79 66 46 38 37 36 30 37 31 28 24 21 20 18 19 19 15 12 12 20 27 18 16 17 21 23 27 25
100 100 100 100 100 79 64 57 58 79 100 99 86 82 74 45 38 39 44 42 42 39 40 32 28 28 26 21 18 16 14 13 10 9 8 17 25 20 14 13 19 22 28

GFSSE_250_rhum_177.txt.gz
RH
100 100 100 100 100 99 89 82 83 72 66 53 48 60 60 52 51 54 56 57 54 50 48 36 34 32 31 26 26 26 26 24 21 19 19 19 18 17 16 16 16 14 13
90 94 83 100 100 93 85 78 72 58 54 50 51 58 53 54 42 41 49 48 40 34 30 24 23 21 19 19 20 20 21 21 21 22 20 19 18 19 18 18 16 15 15
96 73 78 65 66 83 77 43 37 37 35 33 31 28 28 30 29 28 26 24 21 23 20 21 22 23 23 24 23 21 21 22 23 23 24 23 24 21 21 21 20 19 18
33 31 30 34 37 36 30 28 28 35 35 35 29 24 24 24 23 26 30 32 29 30 33 39 45 42 32 32 33 34 27 23 26 30 26 24 22 23 24 22 20 20 21
29 30 36 36 31 30 27 24 26 31 39 42 44 44 36 31 28 30 33 38 48 51 55 47 43 41 40 37 38 32 35 34 36 32 27 30 27 25 23 23 24 22 24
23 27 31 32 30 27 26 26 26 29 33 36 42 50 58 56 49 41 40 45 54 62 55 48 45 44 52 48 39 39 33 37 41 47 37 32 29 30 29 35 36 35 38
20 19 19 20 20 20 23 25 25 24 24 28 32 42 56 64 74 73 73 72 77 74 64 60 52 60 76 79 55 35 32 35 41 49 49 46 37 40 39 40 45 48 51
22 26 27 26 23 23 24 25 25 26 28 29 28 26 31 41 60 68 70 74 76 69 68 80 80 72 73 80 77 53 38 34 37 41 46 51 40 41 39 44 42 40 41
15 18 20 21 21 21 18 19 19 23 26 32 32 31 32 33 40 48 62 62 61 70 71 72 82 97 91 75 75 74 53 44 34 40 37 36 40 38 43 54 47 43 35
11 13 13 14 15 16 17 17 19 20 23 27 28 32 36 37 35 39 41 42 45 47 52 64 64 57 56 58 52 64 62 53 56 47 31 35 26 32 40 42 44 44 42
12 13 14 14 16 16 16 16 18 20 22 26 27 30 30 28 30 33 35 38 43 42 45 48 50 52 50 46 48 59 56 59 66 63 46 56 61 81 87 61 40 39 40
13 17 17 17 18 20 23 24 27 30 28 30 32 33 30 28 27 27 29 30 33 36 39 46 52 54 54 54 52 49 52 65 67 59 77 98 100 86 87 100 87 47 44
17 18 17 18 19 20 21 22 25 26 26 28 30 30 31 30 31 32 33 34 34 33 35 35 36 39 47 55 55 50 50 49 67 73 79 100 100 81 93 100 98 73 59
17 17 16 16 18 20 24 21 19 21 23 24 24 22 23 23 26 28 30 30 30 32 32 31 32 34 36 36 36 42 51 46 46 47 53 64 100 85 75 100 100 100 100
21 19 18 20 25 28 26 30 36 31 31 34 35 34 33 29 24 22 24 25 27 26 26 29 30 29 29 32 34 36 35 36 38 48 34 41 49 95 91 88 92 100 100
28 25 30 31 36 53 54 38 38 34 36 44 46 43 40 33 32 27 24 23 22 21 22 22 23 24 24 26 28 30 33 34 33 28 41 35 36 44 62 83 63 79 92
37 34 34 45 76 91 74 58 50 44 48 53 52 52 50 46 38 34 27 23 23 22 24 26 25 30 26 28 25 22 24 28 31 31 26 26 34 36 40 52 74 48 68
35 38 38 49 75 100 95 75 68 70 70 68 59 50 54 50 43 39 36 31 30 32 42 46 46 47 40 37 30 25 23 22 22 27 29 28 23 24 34 39 48 70 56
41 48 54 76 100 100 83 72 75 74 91 89 74 59 48 41 36 31 30 36 49 61 79 84 56 43 44 36 28 25 23 23 21 21 23 25 26 24 23 26 36 46 63
51 64 70 77 88 79 83 87 69 77 91 86 70 60 55 50 42 35 35 54 81 97 87 66 53 44 33 28 25 23 22 20 21 19 18 20 22 25 24 21 22 30 42
61 58 69 65 75 88 98 95 81 90 89 85 71 74 56 44 34 40 59 91 100 94 77 57 37 30 29 26 26 25 22 19 18 18 17 17 18 20 23 22 20 20 24
80 70 72 81 96 100 100 88 90 94 91 94 90 72 57 44 62 85 100 99 93 86 64 48 35 31 30 28 26 22 26 23 15 14 15 15 15 16 17 20 20 20 20
65 88 100 100 100 100 87 96 100 99 99 100 86 72 58 55 75 100 100 97 80 58 51 37 32 36 33 31 27 22 21 23 28 20 13 13 14 14 14 15 17 18 20
100 100 100 100 94 78 94 100 100 100 100 94 82 69 63 79 94 100 98 73 55 43 33 36 34 33 35 33 30 27 19 17 20 25 27 15 12 13 12 13 13 15 16
100 100 100 100 95 100 100 100 100 100 92 87 77 70 81 97 100 96 79 51 34 33 39 38 38 36 35 33 27 24 21 13 11 14 25 30 16 12 12 12 12 12 12
100 100 100 100 100 100 100 100 100 95 91 80 79 96 100 100 100 73 57 39 37 45 44 40 39 42 39 33 26 18 12 9 7 6 9 16 22 19 13 11 10 12 13

GFSSE_250_rhum_180.txt.gz
RH
100 100 100 100 100 100 100 90 76 73 58 53 53 44 40 35 34 33 36 42 41 44 40 36 38 47 43 32 28 29 26 25 23 21 19 19 20 19 19 18 16 16 16
49 98 100 100 100 100 94 71 52 45 53 49 37 26 30 31 29 26 25 27 27 27 27 29 28 25 24 23 22 20 19 19 18 19 18 20 18 21 21 20 19 18 18
96 91 94 92 79 67 52 38 28 26 26 25 23 25 29 28 28 26 25 23 22 24 28 29 28 30 30 33 33 29 23 23 25 25 21 20 21 20 19 19 22 20 20
76 68 49 29 24 22 22 22 22 26 27 26 26 29 30 31 30 32 31 28 28 35 39 42 48 48 47 42 38 35 33 31 28 27 31 25 24 22 22 22 22 22 20
22 24 24 22 18 17 17 17 18 19 22 23 22 23 25 27 31 33 36 39 38 33 39 48 54 59 54 48 41 43 52 53 40 32 29 35 35 25 24 23 22 23 28
17 16 17 18 21 22 22 20 18 18 20 21 21 22 25 25 26 32 43 56 56 54 45 47 52 69 64 57 60 53 59 61 66 50 32 37 36 36 30 26 24 25 34
23 22 21 19 18 21 25 23 23 24 22 22 22 21 21 28 27 28 27 29 46 60 60 60 61 63 58 50 50 54 56 60 52 52 44 36 37 37 41 34 34 34 37
21 16 12 12 12 13 13 13 13 13 14 16 16 17 19 22 26 27 28 31 30 32 44 58 64 61 60 62 60 61 59 64 61 51 43 35 37 33 43 40 40 35 38
12 12 10 11 12 12 11 12 14 16 16 16 16 20 20 21 23 26 25 28 29 28 28 32 39 39 41 48 54 67 65 56 52 51 48 36 30 31 41 59 39 39 39
12 10 12 12 13 13 15 17 19 21 22 22 21 21 22 25 28 29 29 28 29 29 29 29 30 34 36 33 32 39 48 56 57 51 52 63 44 30 27 48 72 42 40
13 13 14 15 16 16 16 15 20 22 23 28 28 29 29 31 31 32 30 30 31 32 34 35 35 36 37 38 39 42 49 55 55 53 58 76 91 75 34 45 68 85 75
15 17 18 17 18 17 15 17 21 22 23 22 22 23 25 25 24 23 23 23 25 28 30 31 32 33 34 35 35 36 38 42 52 60 57 55 64 100 86 40 71 80 78
17 19 20 21 21 18 18 19 22 23 25 26 27 24 24 28 27 30 28 28 25 22 23 23 24 25 26 28 30 33 35 36 37 37 46 57 55 65 100 91 69 71 74
19 23 23 24 24 23 25 29 35 38 34 31 30 31 30 25 28 29 27 30 30 29 28 23 21 19 19 21 25 27 29 29 31 33 35 34 45 51 62 100 74 85 100
25 26 28 28 28 30 33 41 66 66 54 42 39 34 32 32 32 33 29 30 34 33 30 27 23 20 18 19 20 20 22 24 24 25 27 30 32 35 46 56 83 73 98
34 33 33 31 30 35 38 48 68 100 76 68 56 50 43 47 50 41 40 43 39 33 30 26 24 23 27 44 61 58 45 29 26 26 22 24 26 29 29 38 51 83 55
42 37 36 35 37 37 49 64 100 100 75 71 68 60 70 63 62 50 49 41 45 43 32 26 26 33 65 87 100 88 68 46 29 26 24 21 20 23 26 26 32 47 96
44 40 39 40 44 49 53 60 54 60 87 96 87 82 90 83 63 58 56 52 59 50 38 35 39 72 87 100 98 76 44 35 27 26 24 22 18 18 20 22 24 26 39
47 52 48 54 64 63 60 60 65 91 100 91 63 83 90 84 75 68 72 74 67 51 49 52 70 99 100 93 67 50 35 26 25 26 25 22 20 17 16 18 19 22 24
64 79 79 85 94 66 59 80 100 100 80 48 63 84 82 84 75 88 91 78 67 61 55 80 99 100 88 62 52 39 27 29 32 29 26 23 21 18 16 15 16 17 19
78 99 100 100 68 74 94 93 97 66 57 67 65 79 77 79 99 100 78 72 64 64 78 100 100 71 58 53 44 35 28 33 32 29 30 31 25 20 15 16 14 14 16
87 90 78 56 70 90 98 100 90 65 76 63 73 92 82 92 90 80 79 72 59 72 100 100 86 74 54 40 32 34 35 39 33 30 32 35 27 24 19 16 14 13 14
70 66 70 79 77 86 100 85 63 75 76 86 100 94 98 95 82 67 57 62 88 100 100 98 85 65 44 35 34 36 34 35 36 44 37 25 22 23 20 18 14 13 13
62 63 65 79 100 100 87 63 67 81 100 100 100 100 98 94 88 78 72 80 100 100 100 91 69 55 39 31 38 40 37 28 22 32 37 38 19 14 16 17 15 13 12
57 70 82 100 100 92 64 93 100 100 100 100 99 98 82 74 77 75 77 100 100 100 88 76 63 39 36 39 38 40 34 26 18 18 22 19 15 10 9 12 15 13 12
82 96 100 100 93 94 100 100 100 100 100 95 93 85 83 75 82 100 100 100 99 84 76 61 39 36 40 39 43 45 30 25 22 15 8 9 12 18 7 7 10 12 11

GFSSE_250_rhum_183.txt.gz
RH
34 54 74 99 100 100 100 95 98 83 89 83 65 44 30 23 22 22 21 23 27 25 24 25 27 30 31 30 34 36 35 33 27 24 22 22 20 18 18 18 16 15 14
31 33 44 48 69 83 100 100 100 96 64 36 31 25 18 19 19 20 22 20 23 26 24 22 22 22 24 27 25 24 24 24 24 22 22 22 21 20 18 17 17 17 17
23 38 49 67 70 76 80 59 44 18 17 16 15 16 19 20 20 21 24 26 27 28 32 28 27 33 35 33 34 38 43 39 33 32 30 29 27 26 26 22 20 20 18
19 26 28 56 66 33 20 16 17 17 18 18 19 19 20 20 20 21 21 22 27 34 37 35 34 36 44 46 51 54 52 49 41 38 39 43 43 30 26 26 24 22 20
14 18 19 18 17 17 16 13 12 12 14 15 16 17 19 20 20 20 22 25 26 26 29 38 43 43 42 42 49 59 67 61 56 58 53 53 56 53 27 27 32 26 23
12 14 16 17 15 11 10 10 10 10 10 11 12 12 13 15 16 18 20 22 27 26 28 30 34 44 53 52 52 51 55 54 47 46 52 62 65 62 47 25 29 34 31
12 11 14 14 11 9 10 10 10 11 10 11 14 15 15 15 15 18 20 21 22 23 25 27 31 32 36 44 54 56 51 48 46 48 49 49 54 56 56 45 46 52 40
12 10 11 11 8 11 10 11 12 12 11 12 15 17 19 18 18 19 21 24 28 28 27 27 27 28 29 29 31 36 42 44 42 43 47 57 56 46 42 50 44 36 47
16 11 11 10 11 12 14 14 14 13 12 13 16 17 21 23 24 24 24 28 27 25 26 26 26 26 26 25 26 27 27 30 33 36 39 47 55 56 44 44 54 46 61
28 14 13 12 13 13 14 16 15 14 15 17 19 19 19 24 24 24 26 24 23 23 24 23 23 24 26 28 29 30 31 32 32 31 32 43 54 57 62 62 58 74 61
38 18 15 16 17 17 17 18 17 18 17 20 20 26 27 27 25 24 27 27 28 28 30 30 28 28 26 24 24 23 22 24 26 30 32 32 34 48 52 63 72 87 88
34 22 20 19 20 20 20 22 21 21 21 24 28 33 31 31 31 30 32 32 29 28 26 25 27 28 25 23 19 18 18 19 21 26 27 28 32 34 39 53 61 76 86
34 26 26 22 23 25 25 26 26 27 26 30 42 45 46 36 36 34 34 29 31 30 28 28 30 31 35 31 25 22 20 18 19 25 26 26 29 29 31 33 46 50 71
38 32 30 28 27 30 30 27 27 29 31 35 69 77 57 54 52 56 58 42 39 41 36 33 35 34 35 31 27 24 22 27 32 37 34 30 30 25 25 27 31 38 48
50 39 33 34 37 36 33 32 30 31 35 64 100 78 65 77 78 79 78 65 58 43 42 45 39 40 51 44 36 28 24 44 91 80 65 39 30 24 21 21 23 28 35
75 49 41 51 44 38 36 38 38 45 50 55 53 60 92 93 68 57 59 54 50 42 44 45 48 63 62 49 37 31 40 74 91 68 40 29 33 31 28 21 19 21 24
79 61 74 62 45 44 43 44 48 57 61 53 51 90 100 58 49 44 48 57 56 53 75 77 79 74 59 45 42 45 56 82 78 60 47 47 39 35 29 25 21 18 20
93 86 83 57 52 58 58 63 72 82 59 64 76 92 60 59 50 45 47 55 60 70 79 68 54 42 40 38 40 61 74 97 71 66 56 56 43 31 28 25 23 17 16
98 96 80 60 77 77 73 92 85 66 69 74 98 72 58 54 51 54 64 66 72 67 65 65 69 61 52 48 48 69 95 92 77 64 59 45 32 31 31 25 22 17 14
88 85 89 94 100 93 97 81 56 73 68 99 94 61 50 38 42 62 72 88 69 71 71 66 56 48 52 64 90 100 100 92 70 62 48 38 31 31 31 26 21 18 16
99 100 98 100 100 86 63 55 76 72 82 71 55 39 37 52 68 66 88 72 76 75 60 52 50 52 61 80 100 100 84 70 70 62 45 35 35 33 30 24 23 20 17
100 86 100 99 81 62 44 47 54 60 54 47 48 46 54 82 81 80 68 76 83 68 67 55 52 61 92 100 99 80 77 73 61 46 40 38 35 30 28 25 21 20 21
93 98 69 67 48 52 62 83 93 80 74 72 65 68 80 79 80 72 81 93 78 70 62 59 71 100 100 100 98 76 61 73 56 46 39 43 35 25 17 18 18 16 18
56 52 62 67 81 91 100 100 100 94 95 94 92 93 94 90 95 96 87 84 79 78 80 81 100 100 100 98 81 65 55 56 51 44 58 52 31 28 17 13 13 15 16
79 96 100 97 97 100 100 100 100 100 100 94 100 100 100 100 100 95 76 96 86 84 94 100 100 99 95 85 75 67 48 40 43 41 38 48 38 18 24 16 12 11 12
100 91 95 100 100 100 100 100 100 89 79 89 100 100 99 96 95 100 97 68 83 100 100 100 100 96 91 82 78 58 50 48 45 31 22 18 29 36 15 17 9 7 6